Location: North Evanston
(42.0634°N, 87.6976°W)
Time: 21:55:14
(UTC+00:00)

Transit 2A - Pass Details

Date: 15 May 2026
Orbit: 595 x 948 km, 66.7° (Epoch: 9 June)

Event Time Altitude Azimuth Distance (km) Brightness Sun altitude
Rises 21:59:43 0° 226° (SW) 3,590 10.1 32.4°
Reaches altitude 10° 22:02:24 10° 231° (SW) 2,629 9.7 31.9°
Maximum altitude 22:08:20 49° 306° (NW) 1,141 8.1 30.8°
Drops below altitude 10° 22:13:55 10° 21° (NNE) 2,465 8.5 29.8°
Sets 22:16:22 0° 27° (NNE) 3,349 9.1 29.3°
